Time,TemperatureF,DewpointF,PressureIn,WindDirection,WindDirectionDegrees,WindSpeedMPH,WindSpeedGustMPH,Humidity,HourlyPrecipIn,Conditions,Clouds,dailyrainin,SolarRadiationWatts/m^2,SoftwareType,DateUTC
2013-10-16 00:12:00,28.0,23.0,-100.00,NNW,333,15.0,23.0,82,0.00,,,0.00,0.000000,,2013-10-16 06:12:00,
2013-10-16 00:22:00,28.0,23.0,-100.00,NNW,333,15.0,23.0,82,0.00,,,0.00,0.000000,,2013-10-16 06:22:00,
2013-10-16 00:33:00,28.0,23.0,-100.00,NNW,333,15.0,23.0,82,0.00,,,0.00,0.000000,,2013-10-16 06:33:00,
2013-10-16 01:11:00,27.0,22.0,-100.00,NNW,332,13.0,22.0,81,0.00,,,0.00,0.000000,,2013-10-16 07:11:00,
2013-10-16 01:21:00,27.0,22.0,-100.00,NNW,332,13.0,22.0,81,0.00,,,0.00,0.000000,,2013-10-16 07:21:00,
2013-10-16 01:32:00,27.0,22.0,-100.00,NNW,332,13.0,22.0,81,0.00,,,0.00,0.000000,,2013-10-16 07:32:00,
2013-10-16 02:11:00,27.0,22.0,-100.00,NNW,334,14.0,20.0,81,0.00,,,0.00,0.000000,,2013-10-16 08:11:00,
2013-10-16 02:21:00,27.0,22.0,-100.00,NNW,334,14.0,20.0,81,0.00,,,0.00,0.000000,,2013-10-16 08:21:00,
2013-10-16 02:32:00,27.0,22.0,-100.00,NNW,334,14.0,20.0,81,0.00,,,0.00,0.000000,,2013-10-16 08:32:00,
2013-10-16 03:11:00,26.0,21.0,-100.00,NNW,337,12.0,22.0,82,0.00,,,0.00,0.000000,,2013-10-16 09:11:00,
2013-10-16 03:22:00,26.0,21.0,-100.00,NNW,337,12.0,22.0,82,0.00,,,0.00,0.000000,,2013-10-16 09:22:00,
2013-10-16 03:33:00,26.0,21.0,-100.00,NNW,337,12.0,22.0,82,0.00,,,0.00,0.000000,,2013-10-16 09:33:00,
2013-10-16 04:13:00,27.0,22.0,-100.00,NNW,328,14.0,23.0,80,0.00,,,0.00,0.000000,,2013-10-16 10:13:00,
2013-10-16 04:23:00,27.0,22.0,-100.00,NNW,328,14.0,23.0,80,0.00,,,0.00,0.000000,,2013-10-16 10:23:00,
2013-10-16 04:33:00,27.0,22.0,-100.00,NNW,328,14.0,23.0,80,0.00,,,0.00,0.000000,,2013-10-16 10:33:00,
2013-10-16 05:12:00,27.0,21.0,-100.00,NNW,337,14.0,21.0,79,0.00,,,0.00,0.000000,,2013-10-16 11:12:00,
2013-10-16 05:22:00,27.0,21.0,-100.00,NNW,337,14.0,21.0,79,0.00,,,0.00,0.000000,,2013-10-16 11:22:00,
2013-10-16 05:33:00,27.0,21.0,-100.00,NNW,337,14.0,21.0,79,0.00,,,0.00,0.000000,,2013-10-16 11:33:00,
2013-10-16 06:12:00,26.0,19.0,-100.00,NNW,341,10.0,20.0,76,0.00,,,0.00,0.000000,,2013-10-16 12:12:00,
2013-10-16 06:21:00,26.0,19.0,-100.00,NNW,341,10.0,20.0,76,0.00,,,0.00,0.000000,,2013-10-16 12:21:00,
2013-10-16 06:32:00,26.0,19.0,-100.00,NNW,341,10.0,20.0,76,0.00,,,0.00,0.000000,,2013-10-16 12:32:00,
2013-10-16 07:12:00,24.0,19.0,-100.00,NNE,18,9.0,21.0,81,0.00,,,0.00,0.000000,,2013-10-16 13:12:00,
2013-10-16 07:22:00,24.0,19.0,-100.00,NNE,18,9.0,21.0,81,0.00,,,0.00,0.000000,,2013-10-16 13:22:00,
2013-10-16 07:32:00,24.0,19.0,-100.00,NNE,18,9.0,21.0,81,0.00,,,0.00,0.000000,,2013-10-16 13:32:00,
2013-10-16 08:11:00,22.0,17.0,-100.00,North,350,6.0,13.0,82,0.00,,,0.00,5.000000,,2013-10-16 14:11:00,
2013-10-16 08:22:00,22.0,17.0,-100.00,North,350,6.0,13.0,82,0.00,,,0.00,5.000000,,2013-10-16 14:22:00,
2013-10-16 08:32:00,22.0,17.0,-100.00,North,350,6.0,13.0,82,0.00,,,0.00,5.000000,,2013-10-16 14:32:00,
2013-10-16 09:11:00,28.0,21.0,-100.00,NNW,337,4.0,10.0,75,0.00,,,0.00,66.000000,,2013-10-16 15:11:00,
2013-10-16 09:22:00,28.0,21.0,-100.00,NNW,337,4.0,10.0,75,0.00,,,0.00,66.000000,,2013-10-16 15:22:00,
2013-10-16 09:33:00,28.0,21.0,-100.00,NNW,337,4.0,10.0,75,0.00,,,0.00,66.000000,,2013-10-16 15:33:00,
2013-10-16 10:13:00,32.0,24.0,-100.00,North,349,4.0,13.0,71,0.00,,,0.00,181.000000,,2013-10-16 16:13:00,
2013-10-16 10:23:00,32.0,24.0,-100.00,North,349,4.0,13.0,71,0.00,,,0.00,181.000000,,2013-10-16 16:23:00,
2013-10-16 10:32:00,32.0,24.0,-100.00,North,349,4.0,13.0,71,0.00,,,0.00,181.000000,,2013-10-16 16:32:00,
2013-10-16 11:12:00,35.0,24.0,-100.00,SSE,164,8.0,12.0,65,0.00,,,0.00,382.000000,,2013-10-16 17:12:00,
2013-10-16 11:22:00,35.0,24.0,-100.00,SSE,164,8.0,12.0,65,0.00,,,0.00,382.000000,,2013-10-16 17:22:00,
2013-10-16 11:33:00,35.0,24.0,-100.00,SSE,164,8.0,12.0,65,0.00,,,0.00,382.000000,,2013-10-16 17:33:00,
2013-10-16 12:11:00,37.0,26.0,-100.00,SSE,148,9.0,14.0,64,0.00,,,0.00,312.000000,,2013-10-16 18:11:00,
2013-10-16 12:22:00,37.0,26.0,-100.00,SSE,148,9.0,14.0,64,0.00,,,0.00,312.000000,,2013-10-16 18:22:00,
2013-10-16 12:32:00,37.0,26.0,-100.00,SSE,148,9.0,14.0,64,0.00,,,0.00,312.000000,,2013-10-16 18:32:00,
2013-10-16 13:11:00,41.0,27.0,-100.00,SSE,156,9.0,16.0,57,0.00,,,0.00,367.000000,,2013-10-16 19:11:00,
2013-10-16 13:22:00,41.0,27.0,-100.00,SSE,156,9.0,16.0,57,0.00,,,0.00,367.000000,,2013-10-16 19:22:00,
2013-10-16 13:32:00,41.0,27.0,-100.00,SSE,156,9.0,16.0,57,0.00,,,0.00,367.000000,,2013-10-16 19:32:00,
2013-10-16 14:12:00,41.0,23.0,-100.00,SSE,155,4.0,14.0,48,0.00,,,0.00,456.000000,,2013-10-16 20:12:00,
2013-10-16 14:22:00,41.0,23.0,-100.00,SSE,155,4.0,14.0,48,0.00,,,0.00,456.000000,,2013-10-16 20:22:00,
2013-10-16 14:32:00,41.0,23.0,-100.00,SSE,155,4.0,14.0,48,0.00,,,0.00,456.000000,,2013-10-16 20:32:00,
2013-10-16 15:11:00,44.0,18.0,-100.00,WNW,283,15.0,22.0,35,0.00,,,0.00,775.000000,,2013-10-16 21:11:00,
2013-10-16 15:23:00,44.0,18.0,-100.00,WNW,283,15.0,22.0,35,0.00,,,0.00,775.000000,,2013-10-16 21:23:00,
2013-10-16 15:34:00,44.0,18.0,-100.00,WNW,283,15.0,22.0,35,0.00,,,0.00,775.000000,,2013-10-16 21:34:00,
2013-10-16 16:14:00,44.0,18.0,-100.00,WNW,291,15.0,23.0,35,0.00,,,0.00,709.000000,,2013-10-16 22:14:00,
2013-10-16 16:24:00,44.0,18.0,-100.00,WNW,291,15.0,23.0,35,0.00,,,0.00,709.000000,,2013-10-16 22:24:00,
2013-10-16 16:33:00,44.0,18.0,-100.00,WNW,291,15.0,23.0,35,0.00,,,0.00,709.000000,,2013-10-16 22:33:00,
2013-10-16 17:12:00,42.0,17.0,-100.00,WNW,282,17.0,30.0,36,0.00,,,0.00,528.000000,,2013-10-16 23:12:00,
2013-10-16 17:22:00,42.0,17.0,-100.00,WNW,282,17.0,30.0,36,0.00,,,0.00,528.000000,,2013-10-16 23:22:00,
2013-10-16 17:34:00,42.0,17.0,-100.00,WNW,282,17.0,30.0,36,0.00,,,0.00,528.000000,,2013-10-16 23:34:00,
2013-10-16 18:12:00,39.0,16.0,-100.00,WNW,282,12.0,26.0,39,0.00,,,0.00,299.000000,,2013-10-17 00:12:00,
2013-10-16 18:22:00,39.0,16.0,-100.00,WNW,282,12.0,26.0,39,0.00,,,0.00,299.000000,,2013-10-17 00:22:00,
2013-10-16 18:32:00,39.0,16.0,-100.00,WNW,282,12.0,26.0,39,0.00,,,0.00,299.000000,,2013-10-17 00:32:00,
2013-10-16 19:12:00,35.0,18.0,-100.00,NNE,21,6.0,22.0,50,0.00,,,0.00,15.000000,,2013-10-17 01:12:00,
2013-10-16 19:22:00,35.0,18.0,-100.00,NNE,21,6.0,22.0,50,0.00,,,0.00,15.000000,,2013-10-17 01:22:00,
2013-10-16 19:32:00,35.0,18.0,-100.00,NNE,21,6.0,22.0,50,0.00,,,0.00,15.000000,,2013-10-17 01:32:00,
2013-10-16 20:12:00,33.0,18.0,-100.00,NE,38,5.0,11.0,53,0.00,,,0.00,0.000000,,2013-10-17 02:12:00,
2013-10-16 20:22:00,33.0,18.0,-100.00,NE,38,5.0,11.0,53,0.00,,,0.00,0.000000,,2013-10-17 02:22:00,
2013-10-16 20:32:00,33.0,18.0,-100.00,NE,38,5.0,11.0,53,0.00,,,0.00,0.000000,,2013-10-17 02:32:00,
2013-10-16 21:12:00,30.0,17.0,-100.00,NNE,22,5.0,9.0,57,0.00,,,0.00,0.000000,,2013-10-17 03:12:00,
2013-10-16 21:22:00,30.0,17.0,-100.00,NNE,22,5.0,9.0,57,0.00,,,0.00,0.000000,,2013-10-17 03:22:00,
2013-10-16 21:34:00,30.0,17.0,-100.00,NNE,22,5.0,9.0,57,0.00,,,0.00,0.000000,,2013-10-17 03:34:00,